Mandarin Grace — 9V8352 — position and weather

sailwx.info

Track history (hours):
 
Tides and Currents Weather Stations Pressure Air Temp Water Temp Dewpoint Dewpoint Depression Visibility Wind Speed Wind Dir Waves Ship Positions

Mandarin Grace

Last reported at 2014-Jul-28 14:18 UTC. Time now 2014-Jul-30 07:02 UTC.
Position N 35°47' E 032°52'.

Length 190 m; draft 12.8 m.

Type: Cargo ship. MMSI: 563862000.

Date/timePositionNaut miles runAvg speedWind from/ knotsBaromVisibWave heightAir tempDewpointWater temp
2014-Jul-28 14:18N 35°47' E 032°52'1411.8
2014-Jul-28 13:06N 35°47' E 032°35'22712.0
2014-Jul-27 18:06N 35°47' E 027°55'5512.2
2014-Jul-27 13:33N 36°03' E 026°49'1313.2
2014-Jul-27 12:32N 36°06' E 026°33'1312.9
2014-Jul-27 11:33N 36°07' E 026°17'1412.5
2014-Jul-27 10:25N 36°07' E 025°60'1012.2
2014-Jul-27 09:33N 36°07' E 025°47'1212.4
2014-Jul-27 08:33N 36°06' E 025°32'1212.3
2014-Jul-27 07:33N 36°05' E 025°16'1212.3
2014-Jul-27 06:33N 36°05' E 025°01'1312.7
2014-Jul-27 05:33N 36°05' E 024°46'1313.1
2014-Jul-27 04:33N 36°05' E 024°29'1313.1
2014-Jul-27 03:33N 36°04' E 024°13'1312.7
2014-Jul-27 02:33N 36°04' E 023°58'1312.5
2014-Jul-27 01:33N 36°03' E 023°42'1212.6
2014-Jul-27 00:33N 36°03' E 023°27'39912.4
2014-Jul-25 16:30N 36°08' E 015°13'1112.1
2014-Jul-25 15:33N 36°08' E 014°59'1212.1
2014-Jul-25 14:33N 36°12' E 014°44'1212.3
2014-Jul-25 13:33N 36°17' E 014°30'1313.1
2014-Jul-25 12:33N 36°22' E 014°15'1212.5
2014-Jul-25 11:33N 36°27' E 014°01'1312.5
2014-Jul-25 10:33N 36°31' E 013°46'1212.5
2014-Jul-25 09:33N 36°36' E 013°32'1212.5
2014-Jul-25 08:33N 36°40' E 013°18'1312.6
2014-Jul-25 07:33N 36°45' E 013°03'1313.1
2014-Jul-25 06:33N 36°50' E 012°48'1312.7
2014-Jul-25 05:33N 36°54' E 012°33'1312.6
2014-Jul-25 04:33N 36°59' E 012°18'1212.3
2014-Jul-25 03:33N 37°04' E 012°04'1212.1
2014-Jul-25 02:32N 37°09' E 011°50'3812.1
2014-Jul-24 23:24N 37°24' E 011°06'1012.0
2014-Jul-24 22:33N 37°26' E 010°54'1212.2
2014-Jul-24 21:33N 37°29' E 010°39'1312.6
2014-Jul-24 20:33N 37°32' E 010°23'1312.7
2014-Jul-24 19:33N 37°34' E 010°07'1312.8
2014-Jul-24 18:32N 37°34' E 009°51'1313.1
2014-Jul-24 17:33N 37°36' E 009°35'1312.7
2014-Jul-24 16:33N 37°36' E 009°19'1212.5
2014-Jul-24 15:33N 37°37' E 009°03'1212.3
2014-Jul-24 14:33N 37°37' E 008°48'1212.1
2014-Jul-24 13:32N 37°36' E 008°32'1813.0
2014-Jul-24 12:11N 37°35' E 008°10'6812.0
2014-Jul-24 06:33N 37°28' E 006°45'1511.9
2014-Jul-24 05:17N 37°27' E 006°26'4811.5
2014-Jul-24 01:06N 37°22' E 005°26'711.4
2014-Jul-24 00:29N 37°21' E 005°17'1111.4
2014-Jul-23 23:33N 37°20' E 005°04'1211.5
2014-Jul-23 22:33N 37°19' E 004°49'1111.5
2014-Jul-23 21:33N 37°18' E 004°35'1211.5
2014-Jul-23 20:33N 37°17' E 004°21'1211.5
2014-Jul-23 19:32N 37°16' E 004°06'1511.6
2014-Jul-23 18:13N 37°15' E 003°47'911.9
2014-Jul-23 17:26N 37°13' E 003°35'1112.1
2014-Jul-23 16:32N 37°12' E 003°22'1312.6
2014-Jul-23 15:32N 37°10' E 003°06'1312.8
2014-Jul-23 14:33N 37°08' E 002°51'1212.3
2014-Jul-23 13:33N 37°06' E 002°36'1313.3
2014-Jul-23 12:33N 37°03' E 002°19'1212.1
2014-Jul-23 11:33N 37°01' E 002°04'1211.8
2014-Jul-23 10:32N 36°59' E 001°49'1212.1
2014-Jul-23 09:31N 36°56' E 001°34'1212.4
2014-Jul-23 08:33N 36°54' E 001°20'1312.7
2014-Jul-23 07:33N 36°52' E 001°04'1212.4
2014-Jul-23 06:33N 36°50' E 000°49'1312.6
2014-Jul-23 05:33N 36°47' E 000°33'1312.6
2014-Jul-23 04:33N 36°45' E 000°18'1212.3
2014-Jul-23 03:33N 36°43' E 000°03'1212.3
2014-Jul-23 02:33N 36°40' W 000°12'1312.5
2014-Jul-23 01:33N 36°38' W 000°28'1212.4
2014-Jul-23 00:33N 36°36' W 000°43'1212.2
2014-Jul-22 23:33N 36°33' W 000°58'1211.9
2014-Jul-22 22:33N 36°31' W 001°12'1811.9
2014-Jul-22 21:04N 36°28' W 001°34'1112.1
2014-Jul-22 20:11N 36°26' W 001°47'812.1
2014-Jul-22 19:33N 36°25' W 001°56'1312.3
2014-Jul-22 18:31N 36°22' W 002°12'1111.8
2014-Jul-22 17:33N 36°21' W 002°26'145 6.0
2014-Jul-21 17:30N 35°59' W 005°23'22812.0
2014-Jul-20 22:29N 36°24' W 010°04'1212.1
2014-Jul-20 21:32N 36°27' W 010°18'58012.3
2014-Jul-18 22:17N 37°56' W 022°17'2312.2
2014-Jul-18 20:22N 37°57' W 022°47'1012.1
2014-Jul-18 19:30N 37°58' W 022°60'1212.1
2014-Jul-18 18:31N 37°59' W 023°15'1312.1
2014-Jul-18 17:26N 38°01' W 023°32'1111.8
2014-Jul-18 16:30N 38°01' W 023°45'1111.6
2014-Jul-18 15:34N 38°02' W 023°59'1211.6
2014-Jul-18 14:33N 38°02' W 024°14'  
Track history (hours):
 
Tides and Currents Weather Stations Pressure Air Temp Water Temp Dewpoint Dewpoint Depression Visibility Wind Speed Wind Dir Waves Ship Positions

Mandarin Grace

Last reported at 2014-Jul-28 14:18 UTC. Time now 2014-Jul-30 07:02 UTC.
Position N 35°47' E 032°52'.

Length 190 m; draft 12.8 m.

Type: Cargo ship. MMSI: 563862000.

Date/timePositionNaut miles runAvg speedWind from/ knotsBaromVisibWave heightAir tempDewpointWater temp
2014-Jul-28 14:18N 35°47' E 032°52'1411.8
2014-Jul-28 13:06N 35°47' E 032°35'22712.0
2014-Jul-27 18:06N 35°47' E 027°55'5512.2
2014-Jul-27 13:33N 36°03' E 026°49'1313.2
2014-Jul-27 12:32N 36°06' E 026°33'1312.9
2014-Jul-27 11:33N 36°07' E 026°17'1412.5
2014-Jul-27 10:25N 36°07' E 025°60'1012.2
2014-Jul-27 09:33N 36°07' E 025°47'1212.4
2014-Jul-27 08:33N 36°06' E 025°32'1212.3
2014-Jul-27 07:33N 36°05' E 025°16'1212.3
2014-Jul-27 06:33N 36°05' E 025°01'1312.7
2014-Jul-27 05:33N 36°05' E 024°46'1313.1
2014-Jul-27 04:33N 36°05' E 024°29'1313.1
2014-Jul-27 03:33N 36°04' E 024°13'1312.7
2014-Jul-27 02:33N 36°04' E 023°58'1312.5
2014-Jul-27 01:33N 36°03' E 023°42'1212.6
2014-Jul-27 00:33N 36°03' E 023°27'39912.4
2014-Jul-25 16:30N 36°08' E 015°13'1112.1
2014-Jul-25 15:33N 36°08' E 014°59'1212.1
2014-Jul-25 14:33N 36°12' E 014°44'1212.3
2014-Jul-25 13:33N 36°17' E 014°30'1313.1
2014-Jul-25 12:33N 36°22' E 014°15'1212.5
2014-Jul-25 11:33N 36°27' E 014°01'1312.5
2014-Jul-25 10:33N 36°31' E 013°46'1212.5
2014-Jul-25 09:33N 36°36' E 013°32'1212.5
2014-Jul-25 08:33N 36°40' E 013°18'1312.6
2014-Jul-25 07:33N 36°45' E 013°03'1313.1
2014-Jul-25 06:33N 36°50' E 012°48'1312.7
2014-Jul-25 05:33N 36°54' E 012°33'1312.6
2014-Jul-25 04:33N 36°59' E 012°18'1212.3
2014-Jul-25 03:33N 37°04' E 012°04'1212.1
2014-Jul-25 02:32N 37°09' E 011°50'3812.1
2014-Jul-24 23:24N 37°24' E 011°06'1012.0
2014-Jul-24 22:33N 37°26' E 010°54'1212.2
2014-Jul-24 21:33N 37°29' E 010°39'1312.6
2014-Jul-24 20:33N 37°32' E 010°23'1312.7
2014-Jul-24 19:33N 37°34' E 010°07'1312.8
2014-Jul-24 18:32N 37°34' E 009°51'1313.1
2014-Jul-24 17:33N 37°36' E 009°35'1312.7
2014-Jul-24 16:33N 37°36' E 009°19'1212.5
2014-Jul-24 15:33N 37°37' E 009°03'1212.3
2014-Jul-24 14:33N 37°37' E 008°48'1212.1
2014-Jul-24 13:32N 37°36' E 008°32'1813.0
2014-Jul-24 12:11N 37°35' E 008°10'6812.0
2014-Jul-24 06:33N 37°28' E 006°45'1511.9
2014-Jul-24 05:17N 37°27' E 006°26'4811.5
2014-Jul-24 01:06N 37°22' E 005°26'711.4
2014-Jul-24 00:29N 37°21' E 005°17'1111.4
2014-Jul-23 23:33N 37°20' E 005°04'1211.5
2014-Jul-23 22:33N 37°19' E 004°49'1111.5
2014-Jul-23 21:33N 37°18' E 004°35'1211.5
2014-Jul-23 20:33N 37°17' E 004°21'1211.5
2014-Jul-23 19:32N 37°16' E 004°06'1511.6
2014-Jul-23 18:13N 37°15' E 003°47'911.9
2014-Jul-23 17:26N 37°13' E 003°35'1112.1
2014-Jul-23 16:32N 37°12' E 003°22'1312.6
2014-Jul-23 15:32N 37°10' E 003°06'1312.8
2014-Jul-23 14:33N 37°08' E 002°51'1212.3
2014-Jul-23 13:33N 37°06' E 002°36'1313.3
2014-Jul-23 12:33N 37°03' E 002°19'1212.1
2014-Jul-23 11:33N 37°01' E 002°04'1211.8
2014-Jul-23 10:32N 36°59' E 001°49'1212.1
2014-Jul-23 09:31N 36°56' E 001°34'1212.4
2014-Jul-23 08:33N 36°54' E 001°20'1312.7
2014-Jul-23 07:33N 36°52' E 001°04'1212.4
2014-Jul-23 06:33N 36°50' E 000°49'1312.6
2014-Jul-23 05:33N 36°47' E 000°33'1312.6
2014-Jul-23 04:33N 36°45' E 000°18'1212.3
2014-Jul-23 03:33N 36°43' E 000°03'1212.3
2014-Jul-23 02:33N 36°40' W 000°12'1312.5
2014-Jul-23 01:33N 36°38' W 000°28'1212.4
2014-Jul-23 00:33N 36°36' W 000°43'1212.2
2014-Jul-22 23:33N 36°33' W 000°58'1211.9
2014-Jul-22 22:33N 36°31' W 001°12'1811.9
2014-Jul-22 21:04N 36°28' W 001°34'1112.1
2014-Jul-22 20:11N 36°26' W 001°47'812.1
2014-Jul-22 19:33N 36°25' W 001°56'1312.3
2014-Jul-22 18:31N 36°22' W 002°12'1111.8
2014-Jul-22 17:33N 36°21' W 002°26'145 6.0
2014-Jul-21 17:30N 35°59' W 005°23'22812.0
2014-Jul-20 22:29N 36°24' W 010°04'1212.1
2014-Jul-20 21:32N 36°27' W 010°18'58012.3
2014-Jul-18 22:17N 37°56' W 022°17'2312.2
2014-Jul-18 20:22N 37°57' W 022°47'1012.1
2014-Jul-18 19:30N 37°58' W 022°60'1212.1
2014-Jul-18 18:31N 37°59' W 023°15'1312.1
2014-Jul-18 17:26N 38°01' W 023°32'1111.8
2014-Jul-18 16:30N 38°01' W 023°45'1111.6
2014-Jul-18 15:34N 38°02' W 023°59'1211.6
2014-Jul-18 14:33N 38°02' W 024°14'  

Dump ship's entire track history